CST,Max TemperatureF,Mean TemperatureF,Min TemperatureF,Max Dew PointF,MeanDew PointF,Min DewpointF,Max Humidity, Mean Humidity, Min Humidity, Max Sea Level PressureIn, Mean Sea Level PressureIn, Min Sea Level PressureIn, Max VisibilityMiles, Mean VisibilityMiles, Min VisibilityMiles, Max Wind SpeedMPH, Mean Wind SpeedMPH, Max Gust SpeedMPH,PrecipitationIn, CloudCover, Events, WindDirDegrees
2013-2-1,5,-6,-18,0,-10,-24,85,68,47,30.28,30.20,30.08,10,8,1,12,6,16,0.00,2,Snow,257
2013-2-2,14,6,-2,3,0,-6,92,75,48,30.13,30.07,29.97,10,8,1,8,1,,0.00,5,Snow,312
2013-2-3,17,11,5,10,5,3,92,73,53,30.02,29.97,29.92,10,7,1,13,4,21,0.00,6,Snow,287
2013-2-4,19,8,-2,10,1,-6,92,69,36,30.01,29.95,29.87,10,9,1,8,3,,0.00,2,Snow,10
2013-2-5,30,13,-5,25,12,-9,100,82,68,30.08,29.84,29.68,10,8,0,14,3,20,0.00,6,Snow,257
2013-2-6,28,8,-13,23,7,-18,93,81,68,30.16,30.08,29.99,10,8,0,8,1,,0.00,4,Snow,106
2013-2-7,30,28,26,30,28,25,100,97,86,30.18,30.03,29.98,10,3,1,10,5,10,0.00,8,Snow,33
2013-2-8,28,14,0,27,11,-4,100,75,43,30.37,30.30,30.18,10,10,5,9,4,,0.00,2,,23
2013-2-9,30,14,-2,25,17,-6,100,83,74,30.32,30.16,30.01,10,9,5,10,4,16,0.00,7,,162
2013-2-10,37,32,28,37,31,23,100,95,80,30.01,29.59,29.27,10,6,0,13,5,20,0.17,8,Rain-Snow,111
2013-2-11,35,29,23,36,26,18,100,87,69,29.99,29.63,29.26,10,8,1,22,11,33,0.00,8,Rain-Snow,269
2013-2-12,33,24,15,23,18,14,100,76,60,30.04,29.94,29.80,10,9,2,14,7,16,0.00,4,Snow,232
2013-2-13,37,26,14,32,23,12,100,85,60,29.80,29.69,29.56,10,7,0,6,2,,0.02,6,Snow,217
2013-2-14,33,26,19,34,24,7,100,80,58,30.08,29.78,29.53,10,7,0,15,5,23,0.00,7,Snow,327
2013-2-15,19,10,0,7,3,-6,92,64,49,30.23,30.18,30.09,10,10,10,13,6,20,0.00,2,,291
2013-2-16,17,3,-11,3,-2,-17,85,67,45,30.20,30.17,30.14,10,10,10,9,5,,0.00,3,,298
2013-2-17,30,7,-16,18,-1,-22,84,63,40,30.16,30.03,29.80,10,10,10,10,2,16,0.00,1,,142
2013-2-18,37,28,19,32,23,16,100,81,69,29.79,29.58,29.50,10,9,2,16,5,25,0.00,4,Rain-Snow,242
2013-2-19,19,12,5,14,0,-6,80,63,48,30.24,29.93,29.62,10,7,1,21,12,30,0.00,5,Snow,302
2013-2-20,23,12,1,9,1,-6,92,66,50,30.38,30.35,30.25,10,10,10,12,6,,0.00,1,,306
2013-2-21,24,10,-4,21,7,-6,92,76,59,30.44,30.31,30.09,10,10,10,14,6,18,0.00,2,,67
2013-2-22,30,26,23,27,23,19,100,87,75,30.06,29.86,29.80,10,5,0,14,8,21,0.02,8,Snow,52
2013-2-23,30,24,19,23,21,18,100,80,69,29.93,29.85,29.81,10,9,3,12,5,17,0.00,8,Snow,252
2013-2-24,35,19,3,23,15,1,100,85,52,30.09,30.04,29.93,10,8,2,7,1,,0.00,0,,261
2013-2-25,37,26,15,28,24,16,100,89,65,30.11,30.08,30.02,10,8,2,6,0,,0.00,6,Snow,267
2013-2-26,37,27,17,27,25,18,100,82,65,30.04,29.88,29.76,10,8,2,23,7,31,0.00,5,Snow,47
2013-2-27,33,32,32,32,29,23,100,88,69,29.89,29.78,29.73,10,5,0,15,9,21,0.01,8,Snow,359
2013-2-28,32,29,26,30,24,16,100,79,64,30.17,30.04,29.90,10,9,2,13,7,16,0.00,8,Snow,3